User: anonymous   Login
Location: Asheville, NC
(35.6000°N, 82.5500°W)
Time: 17:02:47
(UTC-04:00)
Language:

CAS-4B - Orbit

View from above orbital plane
View from above orbital plane
View from above satellite
View from above satellite

Ground track
Ground track

The orbit data is extracted from the following two-line orbital elements,

1 42759U 17034B   18142.45408014  .00000181  00000-0  24733-4 0  9997
2 42759  43.0191 224.5359 0010349 303.9358 120.0354 15.09284917 51563
Epoch (UTC): 22 May 2018 10:53:52
Eccentricity: 0.0010349
inclination: 43.0191°
perigee height: 531 km
apogee height: 545 km
right ascension of ascending node: 224.5359°
argument of perigee: 303.9358°
revolutions per day: 15.09284917
mean anomaly at epoch: 120.0354°
orbit number at epoch: 5156

The dashed part of the orbit path shows where the satellite is in the earth's shadow,  

DLR